Date String (YYYY-MM-DD hh:mm:ss) UTC,Instrument flags,Ambient pressure (hPa),Sample flow (lpm),Bypass flow (lpm),Sample temperature (°C),Ambient temperature (°C),ASC tube jacket temperature (°C),LED temperature (°C),Box temperature (°C),Sample RH (%),Span deviation,Mass concentration (μg/m³),Mass concentration (μg/m³),Mass concentration (μg/m³)
DateTimeUTC,F1_M11,P_M11,Q1_M11,Q2_M11,T1_M11,T2_M11,T3_M11,T4_M11,T5_M11,U1_M11,ZSPAN_M11,X0_M11,X2_M11,X1_M11
2022-01-19 06:00:00,,0823.6,5.02,0.00,22.4,21.7,00.0,31.4,24.2,09.0,0000.0,0004.23,0002.32,0001.72
2022-01-19 06:01:00,,0823.6,4.99,0.00,22.4,21.7,00.0,31.4,24.2,09.0,0000.0,0004.19,0002.27,0001.70
2022-01-19 06:02:00,,0823.6,5.01,0.00,22.4,21.7,00.0,31.4,24.1,08.9,0000.0,0004.08,0002.22,0001.69
2022-01-19 06:03:00,,0823.6,4.99,0.00,22.4,21.7,00.0,31.4,24.1,08.8,0000.0,0004.15,0002.21,0001.67
2022-01-19 06:04:00,,0823.6,5.01,0.00,22.4,21.7,00.0,31.4,24.1,08.9,0000.0,0003.98,0002.17,0001.67
2022-01-19 06:05:00,,0823.7,4.98,0.00,22.4,21.7,00.0,31.4,24.1,08.9,0000.0,0003.94,0002.17,0001.67
2022-01-19 06:06:00,,0823.7,5.01,0.00,22.4,21.7,00.0,31.4,24.1,08.8,0000.0,0003.84,0002.16,0001.67
2022-01-19 06:07:00,,0823.7,4.99,0.00,22.3,21.7,00.0,31.4,24.1,08.8,0000.0,0003.91,0002.18,0001.66
2022-01-19 06:08:00,,0823.7,5.01,0.00,22.3,21.6,00.0,31.4,24.1,08.8,0000.0,0003.94,0002.19,0001.64
2022-01-19 06:09:00,,0823.6,4.99,0.00,22.3,21.6,00.0,31.4,24.1,08.8,0000.0,0004.16,0002.18,0001.65
2022-01-19 06:10:00,,0823.7,5.01,0.00,22.3,21.6,00.0,31.4,24.1,08.9,0000.0,0004.85,0002.18,0001.65
2022-01-19 06:11:00,,0823.6,5.00,0.00,22.3,21.6,00.0,31.4,24.0,08.9,0000.0,0004.74,0002.19,0001.65
2022-01-19 06:12:00,,0823.6,4.99,0.00,22.3,21.6,00.0,31.4,24.0,08.9,0000.0,0004.74,0002.22,0001.66
2022-01-19 06:13:00,,0823.7,5.01,0.00,22.3,21.6,00.0,31.4,24.0,08.9,0000.0,0004.61,0002.20,0001.66
2022-01-19 06:14:00,,0823.7,5.00,0.00,22.3,21.6,00.0,31.4,24.0,09.0,0000.0,0004.57,0002.15,0001.66
2022-01-19 06:15:00,,0823.7,5.00,0.00,22.3,21.6,00.0,31.4,24.0,08.9,0000.0,0004.93,0002.15,0001.66
2022-01-19 06:16:00,,0823.7,5.00,0.00,22.3,21.6,00.0,31.4,24.0,09.0,0000.0,0004.87,0002.13,0001.68
2022-01-19 06:17:00,,0823.7,4.99,0.00,22.4,22.0,00.0,31.4,24.2,08.9,0000.0,0004.80,0002.12,0001.69
2022-01-19 06:18:00,,0823.7,5.00,0.00,22.5,22.7,00.0,31.4,24.4,08.9,0000.0,0004.81,0002.15,0001.71
2022-01-19 06:19:00,,0823.7,5.00,0.00,22.6,23.2,00.0,31.4,24.6,08.8,0000.0,0004.87,0002.16,0001.73
2022-01-19 06:20:00,,0823.7,4.99,0.00,22.7,23.0,00.0,31.5,24.6,08.8,0000.0,0004.71,0002.20,0001.74
2022-01-19 06:21:00,,0823.8,5.00,0.00,22.7,22.8,00.0,31.5,24.6,08.8,0000.0,0003.87,0002.22,0001.74
2022-01-19 06:22:00,,0823.8,5.00,0.00,22.7,22.7,00.0,31.5,24.6,08.8,0000.0,0004.37,0002.22,0001.75
2022-01-19 06:23:00,,0823.8,5.01,0.00,22.7,22.5,00.0,31.5,24.5,08.7,0000.0,0004.30,0002.19,0001.75
2022-01-19 06:24:00,,0823.8,4.98,0.00,22.6,22.4,00.0,31.5,24.5,08.7,0000.0,0004.36,0002.23,0001.75
2022-01-19 06:25:00,,0823.9,5.01,0.00,22.6,22.3,00.0,31.5,24.4,08.7,0000.0,0004.28,0002.24,0001.75
2022-01-19 06:26:00,,0823.9,4.99,0.00,22.6,22.2,00.0,31.5,24.4,08.8,0000.0,0004.00,0002.23,0001.75
2022-01-19 06:27:00,,0823.9,5.02,0.00,22.6,22.2,00.0,31.6,24.4,08.8,0000.0,0004.16,0002.23,0001.73
2022-01-19 06:28:00,,0823.9,4.99,0.00,22.6,22.1,00.0,31.6,24.4,08.9,0000.0,0005.58,0002.21,0001.72
2022-01-19 06:29:00,,0824.0,5.00,0.00,22.6,22.1,00.0,31.6,24.4,08.8,0000.0,0005.81,0002.20,0001.72
2022-01-19 06:30:00,,0824.0,5.02,0.00,22.6,22.0,00.0,31.6,24.4,08.8,0000.0,0005.79,0002.22,0001.73
2022-01-19 06:31:00,,0824.0,5.00,0.00,22.6,22.0,00.0,31.6,24.3,08.8,0000.0,0005.71,0002.20,0001.72
2022-01-19 06:32:00,,0824.0,4.99,0.00,22.6,22.0,00.0,31.6,24.3,08.8,0000.0,0005.65,0002.18,0001.71
2022-01-19 06:33:00,,0824.0,5.00,0.00,22.6,21.9,00.0,31.6,24.3,08.8,0000.0,0005.00,0002.11,0001.69
2022-01-19 06:34:00,,0824.0,5.00,0.00,22.6,21.9,00.0,31.6,24.3,08.8,0000.0,0004.96,0002.10,0001.68
2022-01-19 06:35:00,,0824.0,5.00,0.00,22.5,21.9,00.0,31.6,24.3,08.8,0000.0,0005.49,0002.07,0001.67
2022-01-19 06:36:00,,0824.1,5.00,0.00,22.5,21.9,00.0,31.6,24.3,08.8,0000.0,0005.76,0002.08,0001.67
2022-01-19 06:37:00,,0824.1,4.99,0.00,22.5,21.9,00.0,31.6,24.3,08.7,0000.0,0005.56,0002.07,0001.66
2022-01-19 06:38:00,,0824.3,5.00,0.00,22.5,21.8,00.0,31.5,24.3,08.8,0000.0,0005.29,0002.04,0001.65
2022-01-19 06:39:00,,0824.3,5.00,0.00,22.5,21.8,00.0,31.5,24.3,09.6,0000.0,0003.97,0002.06,0001.65
2022-01-19 06:40:00,,0824.3,5.00,0.00,22.5,21.8,00.0,31.5,24.3,09.8,0000.0,0003.95,0002.12,0001.69
2022-01-19 06:41:00,,0824.3,5.00,0.00,22.5,21.8,00.0,31.5,24.2,10.0,0000.0,0004.14,0002.23,0001.77
2022-01-19 06:42:00,,0824.3,5.01,0.00,22.4,21.7,00.0,31.5,24.2,10.1,0000.0,0004.89,0002.40,0001.89
2022-01-19 06:43:00,,0824.2,4.94,0.00,22.4,21.7,00.0,31.5,24.2,10.2,0000.0,0006.34,0002.49,0001.94
2022-01-19 06:44:00,,,,,,,,,,,,0007.79,0002.95,0002.26
2022-01-19 06:44:47,,0824.5,4.96,0.00,22.5,22.2,00.0,31.5,24.3,10.2,0000.0,0007.79,0002.95,0002.26
2022-01-19 06:45:00,,0824.4,5.02,0.00,22.6,22.7,00.0,31.5,24.4,10.2,0000.0,0008.05,0003.12,0002.42
2022-01-19 06:46:00,,0824.5,5.00,0.00,22.7,23.4,00.0,31.6,24.7,10.3,0000.0,0008.36,0003.31,0002.67
2022-01-19 06:47:00,,0824.4,5.00,0.00,22.8,23.2,00.0,31.6,24.8,10.4,0000.0,0008.53,0003.52,0002.97
2022-01-19 06:48:00,,0824.4,5.01,0.00,22.8,23.0,00.0,31.6,24.7,10.5,0000.0,0008.90,0003.77,0003.25
2022-01-19 06:49:00,,0824.4,5.01,0.00,22.7,22.8,00.0,31.6,24.6,10.6,0000.0,0010.09,0004.05,0003.48
2022-01-19 06:50:00,,0824.4,4.99,0.00,22.7,22.7,00.0,31.6,24.6,10.8,0000.0,0011.54,0004.33,0003.72
